This is the latest recevied weather packets stored in our database for station/object DL9GRB-13. If no packets are shown the sender has not sent any weather packets the latest 10 day(s).
| Time | Temp. | Humidity | Pressure | Rain* | Wind** | Luminosity | Snow |
|---|---|---|---|---|---|---|---|
| 1777382405 | 13.33° C | 38% | 1026.7 hPa | 0 mm | - | 643 W/m² | - |
| 1777382225 | 13.33° C | 41% | 1026.7 hPa | 0 mm | - | 691 W/m² | - |
| 1777382045 | 13.33° C | 39% | 1026.7 hPa | 0 mm | - | 558 W/m² | - |
| 1777381866 | 13.33° C | 41% | 1026.7 hPa | 0 mm | - | 345 W/m² | - |
| 1777381686 | 13.33° C | 42% | 1026.6 hPa | 0 mm | - | 458 W/m² | - |
| 1777381505 | 13.33° C | 41% | 1026.8 hPa | 0 mm | - | 356 W/m² | - |
| 1777381325 | 13.33° C | 41% | 1026.8 hPa | 0 mm | - | 312 W/m² | - |
| 1777381145 | 13.89° C | 41% | 1026.8 hPa | 0 mm | - | 605 W/m² | - |
| 1777380965 | 13.89° C | 40% | 1026.6 hPa | 0 mm | - | 580 W/m² | - |
| 1777380605 | 13.89° C | 42% | 1026.7 hPa | 0 mm | - | 476 W/m² | - |
| 1777380425 | 13.89° C | 37% | 1026.6 hPa | 0 mm | - | 495 W/m² | - |
| 1777380245 | 13.89° C | 37% | 1026.7 hPa | 0 mm | - | 597 W/m² | - |
| 1777380065 | 14.44° C | 37% | 1026.8 hPa | 0 mm | - | 670 W/m² | - |
| 1777379885 | 14.44° C | 35% | 1026.7 hPa | 0 mm | - | 690 W/m² | - |
| 1777379706 | 14.44° C | 37% | 1026.9 hPa | 0 mm | - | 612 W/m² | - |
| 1777379525 | 13.89° C | 38% | 1026.8 hPa | 0 mm | - | 674 W/m² | - |
| 1777379345 | 14.44° C | 37% | 1026.9 hPa | 0 mm | - | 600 W/m² | - |
| 1777379166 | 14.44° C | 40% | 1026.8 hPa | 0 mm | - | 456 W/m² | - |
| 1777378986 | 13.89° C | 43% | 1026.7 hPa | 0 mm | - | 467 W/m² | - |
| 1777378805 | 13.89° C | 43% | 1026.7 hPa | 0 mm | - | 688 W/m² | - |
| 1777378626 | 13.89° C | 44% | 1026.8 hPa | 0 mm | - | 761 W/m² | - |
| 1777378445 | 13.89° C | 45% | 1026.9 hPa | 0 mm | - | 760 W/m² | - |
| 1777378265 | 13.89° C | 46% | 1026.9 hPa | 0 mm | - | 760 W/m² | - |
| 1777378085 | 13.33° C | 49% | 1026.9 hPa | 0 mm | - | 766 W/m² | - |
| 1777377905 | 13.33° C | 46% | 1027.1 hPa | 0 mm | - | 763 W/m² | - |
* Rain latest hour (hover to see other rain measurements)
** Current wind speed in m/s (hover to see current wind gust speed)